Torna al catalogo

GEESAT 3-09

AttivoComunicazioniLEO
NORAD 61019·PAYLOAD·🇨🇳 China

Lanciato Sep 5, 2024 da Taiyuan Satellite Launch Center

Loading…

Prossimi Passaggi (prossime 24 ore)

TLE

AggiornatoSource: Space-Track

Epoca: Sep 14, 2026, 20:44 UTC

1 61019U 24159J   26257.86410768  .00001472  00000-0  19954-3 0  9995
2 61019  49.9989  26.6474 0021548  45.4053 314.8640 14.84479157110094

Traccia GEESAT 3-09 in tempo reale con AllMySat

Download on the App Store